Location: Unspecified
(51.9930°N, 0.0000°E)
Time: 09:38:24
(UTC+00:00)

CSL-04 DEB - Visible Passes

Search period start: 04 April 2026 00:00
Search period end: 14 April 2026 00:00
Orbit: 667 x 920 km, 99.0° (Epoch: 29 March)

Date Brightness Start Highest point End Pass type
(mag) Time Alt. Az. Time Alt. Az. Time Alt. Az.
4 Apr ? 19:34:25 11° ESE 19:38:49 25° NE 19:43:23 10° N visible
4 Apr ? 21:15:11 36° S 21:17:47 78° WSW 21:23:35 10° NNW visible
4 Apr ? 22:55:59 13° WSW 22:58:07 16° W 23:01:35 10° NW visible
5 Apr ? 20:46:09 29° SE 20:49:13 69° ENE 20:54:55 10° NNW visible
5 Apr ? 22:26:56 21° WSW 22:29:08 26° W 22:33:52 10° NW visible
6 Apr ? 20:17:07 21° SE 20:20:45 44° ENE 20:26:08 10° N visible
6 Apr ? 21:57:53 28° SW 22:00:16 40° W 22:05:40 10° NNW visible
7 Apr ? 19:48:04 13° ESE 19:52:23 30° ENE 19:57:12 10° N visible
7 Apr ? 21:28:51 33° S 21:31:32 64° WSW 21:37:13 10° NNW visible
7 Apr ? 23:09:41 10° WSW 23:12:03 12° W 23:14:22 10° WNW visible
8 Apr ? 19:20:02 10° E 19:24:07 20° NE 19:28:05 10° N visible
8 Apr ? 20:59:48 30° SSE 21:02:54 83° ENE 21:08:36 10° NNW visible
8 Apr ? 22:40:34 16° WSW 22:42:59 21° W 22:47:10 10° NW visible
9 Apr ? 20:30:45 22° SE 20:34:22 54° ENE 20:39:51 10° N visible
9 Apr ? 22:11:32 23° SW 22:14:03 32° W 22:19:08 10° NNW visible
10 Apr ? 20:01:41 15° ESE 20:05:56 35° ENE 20:10:58 10° N visible
10 Apr ? 21:42:29 29° SSW 21:45:16 51° W 21:50:46 10° NNW visible
11 Apr ? 19:33:09 10° ESE 19:37:36 24° NE 19:41:55 10° N visible
11 Apr ? 21:13:26 29° S 21:16:34 81° WSW 21:22:12 10° NNW visible
11 Apr ? 22:54:12 12° WSW 22:56:49 16° W 23:00:16 10° NW visible
12 Apr ? 20:44:23 23° SE 20:47:58 66° ENE 20:53:30 10° N visible
12 Apr ? 22:25:09 19° SW 22:27:50 26° W 22:32:29 10° NW visible
13 Apr ? 20:15:18 16° SE 20:19:29 42° ENE 20:24:38 10° N visible
13 Apr ? 21:56:06 25° SSW 21:58:59 41° W 22:04:13 10° NNW visible
